Location: Montr�al
(45.5000°N, 73.5830°W)
Time: 07:39:45
(UTC-04:00)

Cosmos 1151 Rocket - Visible Passes

Search period start: 02 September 2014 00:00
Search period end: 12 September 2014 00:00
Orbit: 593 x 619 km, 82.5° (Epoch: 01 September)

Date Brightness Start Highest point End Pass type
(mag) Time Alt. Az. Time Alt. Az. Time Alt. Az.
02 Sep 5.8 00:35:22 16° N 00:35:22 16° N 00:36:17 10° N visible
03 Sep 6.0 00:48:42 14° NNW 00:48:42 14° NNW 00:49:22 10° NNW visible
03 Sep 5.8 23:25:08 12° NNE 23:25:08 12° NNE 23:25:32 10° NNE visible
04 Sep 6.1 01:02:01 11° NNW 01:02:01 11° NNW 01:02:11 10° NNW visible
04 Sep 5.8 23:38:27 14° NNE 23:38:27 14° NNE 23:39:05 10° N visible
05 Sep 5.9 23:51:45 15° N 23:51:45 15° N 23:52:28 10° N visible
07 Sep 6.0 00:05:02 14° NNW 00:05:02 14° NNW 00:05:41 10° N visible
07 Sep 5.8 22:41:26 10° NNE 22:41:26 10° NNE 22:41:26 10° NNE visible
08 Sep 6.1 00:18:19 12° NNW 00:18:19 12° NNW 00:18:41 10° NNW visible
08 Sep 5.8 22:54:43 12° NNE 22:54:43 12° NNE 22:55:06 10° NNE visible
09 Sep 5.8 23:07:58 14° N 23:07:58 14° N 23:08:35 10° N visible
10 Sep 5.9 23:21:13 14° N 23:21:13 14° N 23:21:54 10° N visible
11 Sep 6.0 23:34:27 13° NNW 23:34:27 13° NNW 23:35:03 10° N visible
